Location: Edmonton
(53.5500°N, 113.5000°W)
Time: 20:14:47
(UTC-07:00)

N. Korean satellite - Visible Passes

Search period start: 20 February 2019 00:00
Search period end: 02 March 2019 00:00
Orbit: 456 x 510 km, 97.2° (Epoch: 20 February)

Date Brightness Start Highest point End Pass type
(mag) Time Alt. Az. Time Alt. Az. Time Alt. Az.
20 Feb 6.6 06:59:37 10° NNE 07:03:08 82° ESE 07:06:35 10° SSW visible
20 Feb 10.5 19:17:35 10° WSW 19:18:39 11° W 19:19:44 10° WNW visible
21 Feb 7.9 06:34:59 10° NNE 06:38:20 42° E 06:41:37 10° S visible
21 Feb 9.9 18:51:00 10° SW 18:53:39 19° W 18:56:18 10° NW visible
22 Feb 9.2 06:10:35 10° NE 06:13:26 23° E 06:16:16 10° SSE visible
23 Feb 10.0 05:46:40 10° ENE 05:48:27 13° E 05:50:14 10° ESE visible
24 Feb 6.8 06:54:05 10° NNE 06:57:33 72° ESE 07:00:58 10° S visible
24 Feb 10.3 19:11:30 10° WSW 19:13:02 12° W 19:14:34 10° WNW visible
25 Feb 8.3 06:29:28 10° NNE 06:32:43 37° E 06:35:56 10° SSE visible
25 Feb 9.7 18:45:15 10° SW 18:48:03 21° W 18:50:49 10° NW visible
26 Feb 9.5 06:05:07 10° NE 06:07:48 21° E 06:10:27 10° SE visible
27 Feb 10.2 05:41:26 10° ENE 05:42:47 12° E 05:44:09 10° ESE visible
28 Feb 10.2 19:05:31 10° WSW 19:07:22 14° W 19:09:14 10° WNW visible
01 Mar 8.6 06:23:54 10° NNE 06:27:03 32° E 06:30:11 10° SSE visible
